EW3670 Weather Reports


Display with metric or nautical units.
time (UTC)temp
F
wind
direction
speed
MPH
gust
MPH
rain 1hr
in
rain 24hr
in
rain mn
in
humidity
%
barometer
mb
20260904073101 63 301 0.0 2.0 0.00 0.00 0.00 88 1010.8
20260904071601 64 0 0.0 2.0 0.00 0.00 0.00 87 1010.9
20260904070057 64 268 0.0 2.0 0.00 0.00 0.00 86 1010.9
20260904064602 65 259 0.0 3.0 0.00 0.00 0.00 85 1010.9
20260904063101 65 311 1.0 4.0 0.00 0.00 0.00 86 1010.8
20260904061600 65 281 1.0 4.0 0.00 0.00 0.00 86 1011.0
20260904060108 65 293 1.0 3.0 0.00 0.00 0.00 85 1010.8
20260904054604 65 298 1.0 5.0 0.00 0.00 0.00 85 1010.9
20260904053102 66 292 1.0 4.0 0.00 0.00 0.00 84 1010.9
20260904051604 66 297 1.0 3.0 0.00 0.00 0.00 83 1011.1
20260904050104 66 287 1.0 3.0 0.00 0.00 0.00 82 1011.0
20260904044610 67 289 1.0 3.0 0.00 0.00 0.00 81 1011.0
20260904043100 67 298 1.0 3.0 0.00 0.00 0.00 80 1011.2
20260904041604 67 285 1.0 3.0 0.00 0.00 0.00 78 1011.1
20260904040104 68 302 1.0 3.0 0.00 0.00 0.00 77 1011.0
20260904034608 69 281 0.0 5.0 0.00 0.01 0.00 76 1010.9
20260904033109 69 301 1.0 3.0 0.00 0.01 0.00 75 1011.0
20260904031602 69 297 1.0 4.0 0.00 0.01 0.00 74 1011.0
20260904030103 69 289 1.0 7.0 0.00 0.01 0.00 74 1011.1
20260904024608 70 290 1.0 4.0 0.00 0.01 0.00 73 1011.1
20260904023103 70 352 1.0 4.0 0.00 0.01 0.00 72 1011.2
20260904021602 70 281 2.0 7.0 0.00 0.01 0.00 71 1011.2
20260904020101 70 315 1.0 3.0 0.00 0.01 0.00 73 1011.2
20260904014600 70 293 1.0 2.0 0.00 0.01 0.00 76 1011.1
20260904013102 70 293 1.0 3.0 0.00 0.01 0.00 76 1011.2
20260904011613 71 281 0.0 3.0 0.00 0.01 0.00 74 1011.2
20260904010113 71 279 0.0 3.0 0.00 0.01 0.00 73 1011.2
20260904004603 72 0 0.0 1.0 0.00 0.01 0.00 71 1010.9
20260904003102 73 346 0.0 5.0 0.00 0.01 0.00 69 1010.5
20260904001558 73 0 1.0 3.0 0.00 0.01 0.00 68 1010.4
20260903234607 74 281 2.0 8.0 0.00 0.22 0.00 66 1010.2
20260903233103 75 307 2.0 8.0 0.00 0.22 0.00 64 1010.2
20260903231601 76 0 2.0 10.0 0.00 0.22 0.00 62 1009.8
20260903230108 76 188 3.0 12.0 0.00 0.22 0.00 60 1009.9
20260903224602 77 322 2.0 10.0 0.00 0.36 0.00 61 1010.0
20260903223107 78 252 2.0 9.0 0.00 0.36 0.00 59 1010.0
20260903221604 78 292 2.0 10.0 0.00 0.36 0.00 58 1009.7
20260903220123 78 332 4.0 9.0 0.00 0.36 0.00 57 1009.8
20260903214600 78 249 2.0 7.0 0.00 0.37 0.00 57 1009.5
20260903213106 79 296 3.0 11.0 0.00 0.37 0.00 54 1009.8
20260903211604 79 265 1.0 8.0 0.00 0.37 0.00 59 1009.9
20260903210109 79 277 2.0 9.0 0.00 0.37 0.00 58 1010.3
20260903204600 78 298 1.0 6.0 0.00 0.37 0.00 60 1010.4
20260903203130 78 331 1.0 7.0 0.00 0.37 0.00 60 1010.4
20260903201606 78 292 2.0 11.0 0.00 0.37 0.00 59 1009.8
20260903200104 78 299 2.0 8.0 0.00 0.37 0.00 57 1009.9
20260903194602 80 249 3.0 9.0 0.00 0.37 0.00 55 1010.0
20260903193100 80 293 4.0 10.0 0.00 0.37 0.00 53 1010.1
20260903191604 80 347 3.0 10.0 0.00 0.37 0.00 53 1010.2
20260903184601 81 261 2.0 9.0 0.00 0.37 0.00 56 1010.0
20260903183102 81 279 3.0 13.0 0.00 0.37 0.00 58 1010.1
20260903181600 80 288 2.0 9.0 0.00 0.37 0.00 57 1010.2
20260903180104 81 318 3.0 11.0 0.00 0.37 0.00 60 1010.3
20260903174604 81 253 3.0 11.0 0.00 0.37 0.00 60 1010.3
20260903173101 80 298 3.0 10.0 0.00 0.37 0.00 62 1010.4
20260903171612 78 335 2.0 13.0 0.00 0.37 0.00 65 1010.3
20260903170107 78 269 2.0 8.0 0.00 0.37 0.00 66 1010.5
20260903164637 78 273 2.0 10.0 0.00 0.37 0.00 66 1010.3
20260903163103 77 28 3.0 9.0 0.00 0.37 0.00 67 1010.5
20260903161558 76 296 1.0 9.0 0.00 0.37 0.00 69 1010.8
20260903160105 77 311 2.0 8.0 0.00 0.37 0.00 69 1010.7
20260903154602 75 213 2.0 10.0 0.00 0.37 0.00 71 1010.7
20260903153103 75 275 1.0 10.0 0.00 0.37 0.00 73 1010.9
20260903151602 74 267 2.0 8.0 0.00 0.37 0.00 74 1011.0
20260903150101 74 259 3.0 8.0 0.00 0.37 0.00 73 1011.1
20260903144606 74 272 3.0 7.0 0.00 0.37 0.00 75 1011.1
20260903143105 73 302 1.0 7.0 0.00 0.37 0.00 77 1011.2
20260903141602 71 275 1.0 10.0 0.00 0.37 0.00 80 1011.1
20260903140105 71 300 3.0 9.0 0.00 0.37 0.00 80 1011.1
20260903134611 70 281 2.0 7.0 0.00 0.37 0.00 82 1010.9
20260903133103 70 36 2.0 6.0 0.00 0.37 0.00 83 1010.9
20260903131607 69 241 2.0 5.0 0.00 0.37 0.00 84 1010.9
20260903124610 69 244 2.0 7.0 0.00 0.37 0.00 85 1011.0
20260903123104 68 262 2.0 7.0 0.00 0.37 0.00 87 1010.7
20260903121615 68 284 2.0 6.0 0.00 0.37 0.00 89 1010.6
20260903120110 67 263 1.0 7.0 0.00 0.37 0.00 91 1010.8
20260903114601 66 292 1.0 6.0 0.00 0.37 0.00 91 1010.7
20260903113144 67 0 1.0 4.0 0.00 0.37 0.00 93 1010.5
20260903111602 66 306 1.0 4.0 0.00 0.37 0.00 93 1010.4
20260903110105 66 257 1.0 5.0 0.00 0.37 0.00 93 1010.3
20260903104611 66 0 0.0 2.0 0.00 0.37 0.00 94 1010.2
20260903103106 66 309 1.0 3.0 0.00 0.37 0.00 94 1010.2
20260903101603 67 290 1.0 5.0 0.00 0.37 0.00 93 1009.9
20260903094601 67 303 1.0 4.0 0.00 0.37 0.00 94 1009.8
20260903093106 67 283 2.0 7.0 0.00 0.37 0.00 95 1009.8
20260903091602 67 297 2.0 6.0 0.00 0.37 0.00 95 1009.6
20260903090109 67 259 1.0 3.0 0.00 0.37 0.00 95 1009.6
20260903084609 67 271 1.0 3.0 0.00 0.37 0.00 95 1009.6
20260903083105 67 298 1.0 2.0 0.00 0.37 0.00 95 1009.6
20260903081601 67 0 0.0 2.0 0.00 0.37 0.00 95 1009.7
20260903074603 67 0 0.0 3.0 0.00 0.37 0.00 95 1009.7